(322920) = 2002 CM211 = 2010 XA71 = 2012 DQ60

Discovered at Kitt Peak on 2002-01-06 by Spacewatch.

Orbit

Orbit type: Main Belt

Note: WebGL enabled browser required.

epoch2023-09-13.0
epoch JD2460200.5
perihelion date2022-10-12.47740
perihelion JD2459864.97740
argument of perihelion (°)229.67124
ascending node (°)348.48751
inclination (°)6.88247
eccentricity0.0241949
perihelion distance (AU)2.8192629
Tisserand w.r.t. Jupiter3.3
ΔV w.r.t. Earth (km/sec)10.7
semimajor axis (AU)2.8891660
mean anomaly (°)67.33903
mean daily motion (°/day)0.20069900
aphelion distance (AU)2.959
period (years)4.91
P-vector [x]-0.78520554
P-vector [y]-0.52558215
P-vector [z]-0.32743802
Q-vector [x]0.61877319
Q-vector [y]-0.68637666
Q-vector [z]-0.38210838
absolute magnitude16.14
phase slope0.15
uncertainty0
referenceMPEC 2023-W66
observations used247
oppositions11
arc length (days)7398
first opposition used2002
last opposition used2022
residual rms (arc-secs)0.63
perturbers coarse indicatorM-v
perturbers precise indicator003Ek
first observation date used2002-01-06.0
last observation date used2022-04-09.0
computer nameMPCLINUX
JD of orbit computation2456966.707286
perihelion JD uncertainty (days)1.1978E-03
argument of perihelion uncertainty (°)2.3966E-04
ascending node uncertainty (°)3.2477E-05
inclination uncertainty (°)9.6555E-06
eccentricity uncertainty 7.4030E-08
perihelion distance uncertainty (AU)1.9428E-07
Minimum Orbit Intersection Distances (in AU)
for orbit epoch: 2460200.5, reference: E2023-W66
Mercury2.36361
Venus2.10421
Earth1.81763
Mars1.18239
Jupiter2.01732
Saturn6.15948
Uranus15.5979
Neptune26.8984

Observations

248 total observations over interval: 2002 01 06.44157 – 2022 04 09.158170
These data are available for download (format description).

Date (UT) J2000 RA J2000 Dec Magn Location Ref
2002 01 06.44157 10 09 19.13 +17 04 12.3 21.0 V 691 – Steward Observatory, Kitt Peak-Spacewatch MPS 303213
2002 01 06.46319 10 09 18.67 +17 04 13.8 21.1 V 691 – Steward Observatory, Kitt Peak-Spacewatch MPS 303213
2002 01 06.48478 10 09 18.18 +17 04 16.0 21.0 V 691 – Steward Observatory, Kitt Peak-Spacewatch MPS 303213
2002 02 10.32037 09 44 58.11 +18 33 54.0 20.2   704 – Lincoln Laboratory ETS, New Mexico MPS 50396
2002 02 10.33454 09 44 57.30 +18 33 56.4 20.8   704 – Lincoln Laboratory ETS, New Mexico MPS 50396
2002 02 10.36287 09 44 55.71 +18 34 00.2 20.6   704 – Lincoln Laboratory ETS, New Mexico MPS 50396
2002 02 12.30768 09 43 07.40 +18 39 01.2 19.6   704 – Lincoln Laboratory ETS, New Mexico MPS 50396
2002 02 12.32182 09 43 06.57 +18 39 03.3 19.8   704 – Lincoln Laboratory ETS, New Mexico MPS 50396
2002 02 12.33596 09 43 05.78 +18 39 04.9 20.2   704 – Lincoln Laboratory ETS, New Mexico MPS 50396
2002 02 12.35014 09 43 04.97 +18 39 07.4 20.0   704 – Lincoln Laboratory ETS, New Mexico MPS 50396
2002 02 12.36429 09 43 04.11 +18 39 09.0 20.0   704 – Lincoln Laboratory ETS, New Mexico MPS 50396
2007 01 17.46021 10 36 07.14 +13 19 04.3 21.0 V 691 – Steward Observatory, Kitt Peak-Spacewatch MPS 414138
2007 01 17.47780 10 36 06.68 +13 19 06.2 20.9 V 691 – Steward Observatory, Kitt Peak-Spacewatch MPS 414138
2007 01 17.49538 10 36 06.22 +13 19 07.9 20.8 V 691 – Steward Observatory, Kitt Peak-Spacewatch MPS 414138
2007 02 06.39579 10 23 35.05 +14 06 53.3   691 – Steward Observatory, Kitt Peak-Spacewatch MPS 414138
2007 02 06.41507 10 23 34.05 +14 06 56.7   691 – Steward Observatory, Kitt Peak-Spacewatch MPS 414138
2007 02 06.43385 10 23 33.13 +14 06 59.9   691 – Steward Observatory, Kitt Peak-Spacewatch MPS 414138
2007 03 13.28611 09 53 51.14 +15 28 18.0 20.5 V G96 – Mt. Lemmon Survey MPS 414138
2007 03 13.29226 09 53 50.82 +15 28 18.3 20.6 V G96 – Mt. Lemmon Survey MPS 414138
2007 03 13.29835 09 53 50.56 +15 28 18.3 20.6 V G96 – Mt. Lemmon Survey MPS 414138
2007 03 13.30448 09 53 50.31 +15 28 18.6 20.7 V G96 – Mt. Lemmon Survey MPS 414138
2009 10 15.18104 22 23 15.68 -10 05 03.4 20.9 V G96 – Mt. Lemmon Survey MPS 414138
2009 10 15.18734 22 23 15.57 -10 05 02.4 20.9 V G96 – Mt. Lemmon Survey MPS 414138
2009 10 15.19355 22 23 15.46 -10 05 02.4 20.9 V G96 – Mt. Lemmon Survey MPS 414138
2009 10 15.19987 22 23 15.39 -10 05 01.8 20.7 V G96 – Mt. Lemmon Survey MPS 414138
2010 09 04.41037 04 33 11.95 +28 32 20.0 21.5 V 691 – Steward Observatory, Kitt Peak-Spacewatch MPS 414138
2010 09 04.42909 04 33 12.84 +28 32 25.3 21.3 V 691 – Steward Observatory, Kitt Peak-Spacewatch MPS 414138
2010 09 04.44786 04 33 13.67 +28 32 29.8 21.3 V 691 – Steward Observatory, Kitt Peak-Spacewatch MPS 414138
2010 10 29.42282 04 42 33.76 +31 33 37.0 20.3 V G96 – Mt. Lemmon Survey MPS 414138
2010 10 29.42715 04 42 33.62 +31 33 37.3 19.8 V G96 – Mt. Lemmon Survey MPS 414138
2010 10 29.43148 04 42 33.44 +31 33 38.1 20.3 V G96 – Mt. Lemmon Survey MPS 414138
2010 10 29.43620 04 42 33.30 +31 33 38.4 19.9 V G96 – Mt. Lemmon Survey MPS 414138
2010 11 13.44041 04 31 31.26 +31 48 54.7 19.8 V G96 – Mt. Lemmon Survey MPS 414138
2010 11 13.44800 04 31 30.86 +31 48 54.6 19.9 V G96 – Mt. Lemmon Survey MPS 414138
2010 11 13.45559 04 31 30.43 +31 48 54.9 19.6 V G96 – Mt. Lemmon Survey MPS 414138
2010 11 13.46316 04 31 30.03 +31 48 55.2 19.7 V G96 – Mt. Lemmon Survey MPS 414138
2010 12 09.26624 04 06 10.80 +31 10 23.4 19.6 V G96 – Mt. Lemmon Survey MPS 362867
2010 12 09.27314 04 06 10.36 +31 10 22.1 20.0 V G96 – Mt. Lemmon Survey MPS 362867
2010 12 09.28008 04 06 09.93 +31 10 21.2 19.8 V G96 – Mt. Lemmon Survey MPS 362867
2010 12 09.28701 04 06 09.54 +31 10 19.6 19.8 V G96 – Mt. Lemmon Survey MPS 362867
2010 12 15.27306 04 00 45.54 +30 51 24.1 19.9 V G96 – Mt. Lemmon Survey MPS 368639
2010 12 15.27355 04 00 45.50 +30 51 24.0 19.8 V G96 – Mt. Lemmon Survey MPS 362867
2010 12 15.27896 04 00 45.21 +30 51 22.8 20.2 V G96 – Mt. Lemmon Survey MPS 368639
2010 12 15.27946 04 00 45.18 +30 51 22.9 19.7 V G96 – Mt. Lemmon Survey MPS 362867
2010 12 15.28524 04 00 44.89 +30 51 21.4 20.3 V G96 – Mt. Lemmon Survey MPS 368639
2010 12 15.28571 04 00 44.85 +30 51 21.3 20.0 V G96 – Mt. Lemmon Survey MPS 362867
2010 12 15.29160 04 00 44.53 +30 51 20.4 19.6 V G96 – Mt. Lemmon Survey MPS 362867
2012 02 16.51985 10 47 18.809 +10 20 55.79 20.4 w F51 – Pan-STARRS 1, Haleakala MPS 414138
2012 02 16.53451 10 47 18.054 +10 20 58.33 20.4 w F51 – Pan-STARRS 1, Haleakala MPS 414138
2012 02 16.54918 10 47 17.299 +10 21 00.96 20.3 w F51 – Pan-STARRS 1, Haleakala MPS 414138
2012 02 16.56389 10 47 16.538 +10 21 03.43 20.5 w F51 – Pan-STARRS 1, Haleakala MPS 414138
2012 02 23.28591 10 41 29.79 +10 41 06.7 19.3 V G96 – Mt. Lemmon Survey MPS 425957
2012 02 23.29523 10 41 29.29 +10 41 08.1 19.8 V G96 – Mt. Lemmon Survey MPS 425957
2012 02 23.30446 10 41 28.78 +10 41 10.1 19.4 V G96 – Mt. Lemmon Survey MPS 425957
2012 02 23.31373 10 41 28.24 +10 41 11.6 19.0 V G96 – Mt. Lemmon Survey MPS 425957
2012 02 27.24763 10 37 58.51 +10 52 48.6 19.5 V 703 – Catalina Sky Survey MPS 414138
2012 02 27.25336 10 37 58.22 +10 52 49.9 19.8 V 703 – Catalina Sky Survey MPS 414138
2012 02 27.25898 10 37 57.86 +10 52 51.6 20.3 V 703 – Catalina Sky Survey MPS 414138
2012 02 27.26464 10 37 57.54 +10 52 52.9 19.8 V 703 – Catalina Sky Survey MPS 414138
2012 02 29.35575 10 36 05.50 +10 58 52.5 19.9 V G96 – Mt. Lemmon Survey MPS 414430
2012 02 29.36005 10 36 05.22 +10 58 53.5 19.6 V G96 – Mt. Lemmon Survey MPS 414430
2012 02 29.36436 10 36 05.04 +10 58 54.1 19.9 V G96 – Mt. Lemmon Survey MPS 414430
2012 03 01.32179 10 35 13.95 +11 01 35.5 20.0 V G96 – Mt. Lemmon Survey MPS 414430
2012 03 01.32523 10 35 13.77 +11 01 36.1 19.8 V G96 – Mt. Lemmon Survey MPS 414430
2012 03 01.32862 10 35 13.59 +11 01 37.0 19.9 V G96 – Mt. Lemmon Survey MPS 414430
2012 03 01.33213 10 35 13.38 +11 01 37.5 19.9 V G96 – Mt. Lemmon Survey MPS 414430
2012 03 17.15792 10 22 07.22 +11 37 30.5 20.5 V 691 – Steward Observatory, Kitt Peak-Spacewatch MPS 417198
2012 03 17.16617 10 22 06.84 +11 37 31.3 20.5 V 691 – Steward Observatory, Kitt Peak-Spacewatch MPS 417198
2012 03 17.17443 10 22 06.49 +11 37 32.3 20.5 V 691 – Steward Observatory, Kitt Peak-Spacewatch MPS 417198
2014 06 24.40820 23 37 41.23 -04 44 25.7 21.2 V G96 – Mt. Lemmon Survey MPS 521229
2014 06 24.41278 23 37 41.39 -04 44 24.1 21.6 V G96 – Mt. Lemmon Survey MPS 521229
2014 06 24.41738 23 37 41.47 -04 44 23.3 21.4 V G96 – Mt. Lemmon Survey MPS 521229
2014 06 24.42198 23 37 41.63 -04 44 21.7 21.9 V G96 – Mt. Lemmon Survey MPS 521229
2014 08 20.47791 23 33 51.202 -03 43 17.87 20.4 w F51 – Pan-STARRS 1, Haleakala MPS 527948
2014 08 20.50225 23 33 50.203 -03 43 20.92 20.3 w F51 – Pan-STARRS 1, Haleakala MPS 527948
2014 08 20.51443 23 33 49.698 -03 43 22.54 20.4 w F51 – Pan-STARRS 1, Haleakala MPS 527948
2014 08 22.47579 23 32 30.636 -03 47 41.03 20.4 w F51 – Pan-STARRS 1, Haleakala MPS 529580
2014 08 22.48804 23 32 30.106 -03 47 42.65 20.4 w F51 – Pan-STARRS 1, Haleakala MPS 529580
2014 08 22.50033 23 32 29.575 -03 47 44.36 20.3 w F51 – Pan-STARRS 1, Haleakala MPS 529580
2014 08 24.11972 23 31 21.49 -03 51 31.9 20.3 R J04 – ESA Optical Ground Station, Tenerife MPS 536303
2014 08 24.13141 23 31 20.95 -03 51 33.7 20.4 R J04 – ESA Optical Ground Station, Tenerife MPS 536303
2014 08 24.14310 23 31 20.44 -03 51 35.0 19.9 R J04 – ESA Optical Ground Station, Tenerife MPS 536303
2014 08 24.15479 23 31 19.95 -03 51 36.8 20.5 R J04 – ESA Optical Ground Station, Tenerife MPS 536303
2014 08 31.27683 23 25 56.26 -04 10 24.0 20.8 V 703 – Catalina Sky Survey MPS 538700
2014 08 31.29486 23 25 55.29 -04 10 26.4 19.9 V 703 – Catalina Sky Survey MPS 538700
2014 08 31.38310 23 25 50.88 -04 10 41.3 20.1 V G96 – Mt. Lemmon Survey MPS 531327
2014 08 31.38767 23 25 50.68 -04 10 42.1 20.1 V G96 – Mt. Lemmon Survey MPS 531327
2014 08 31.39232 23 25 50.44 -04 10 42.9 19.9 V G96 – Mt. Lemmon Survey MPS 531327
2014 08 31.39689 23 25 50.21 -04 10 43.6 20.1 V G96 – Mt. Lemmon Survey MPS 531327
2014 09 12.47775 23 15 47.504 -04 46 46.00 19.6 i F51 – Pan-STARRS 1, Haleakala MPS 532985
